Location: Guayaquil
(2.1667°S, 79.9000°W)
Time: 04:01:10
(UTC-05:00)

DNEPR OBJECT AB - Visible Passes

Search period start: 27 April 2017 00:00
Search period end: 07 May 2017 00:00
Orbit: 587 x 705 km, 97.6° (Epoch: 25 April)

Date Brightness Start Highest point End Pass type
(mag) Time Alt. Az. Time Alt. Az. Time Alt. Az.
27 Apr ? 19:55:42 76° NE 19:55:42 76° NE 19:59:58 10° N visible
28 Apr ? 20:21:25 43° W 20:21:25 43° W 20:25:07 10° NNW visible
29 Apr ? 19:09:26 18° E 19:09:45 18° E 19:12:47 10° NE visible
29 Apr ? 20:47:08 19° W 20:47:08 19° W 20:49:27 10° NW visible
30 Apr ? 19:35:08 40° E 19:35:09 40° E 19:39:17 10° N visible
01 May ? 20:00:51 77° NNW 20:00:51 77° NNW 20:04:56 10° NNW visible
02 May ? 20:26:34 35° W 20:26:34 35° W 20:29:55 10° NW visible
03 May ? 19:14:33 21° E 19:14:47 21° E 19:18:04 10° NNE visible
03 May ? 20:52:16 15° W 20:52:16 15° W 20:53:59 10° WNW visible
04 May ? 19:40:15 47° ENE 19:40:15 47° ENE 19:44:21 10° N visible
05 May ? 20:05:56 66° WNW 20:05:56 66° WNW 20:09:51 10° NNW visible
06 May ? 18:53:55 11° E 18:54:23 11° E 18:55:26 10° ENE visible
06 May ? 20:31:38 28° W 20:31:38 28° W 20:34:39 10° NW visible
